Flag for United Kingdom Weather past 2 weeks in York, England, United Kingdom

Now
39 °F

Partly sunny.


Feels Like: 30 °F
Forecast: 37 / 46 °F
Wind: 17 mph from South

Location: Linton-On-Ouse

Current Time: Mar 1, 2015 at 4:54:41 PM

Latest Report: Mar 1, 2015 at 3:50 PM


Visibility: N/A

Pressure: 29.24 "Hg

Humidity: 87%

Dew point: 36 °F

Location of YorkLocation

Historic Weather in York — Graph

°F

York temperature yesterday

Maximum temperature yesterday: 52 °F (at 11:50 AM)
Minimum temperature yesterday: 41 °F (at 2:50 AM)
Average temperature yesterday: 47 °F

Past Weeks' High & Low Weather Summary

 TemperatureHumidityPressure
High54 °F (Feb 26, 7:50 AM)93% (Feb 14, 7:50 PM)30.63 "Hg (Feb 14, 7:50 PM)
Low30 °F (Feb 17, 6:50 AM)39% (Feb 23, 3:50 PM)28.94 "Hg (Feb 23, 7:50 PM)
Average42 °F75%29.75 "Hg
* Reported Feb 14 2:50 PM — Mar 1 2:50 PM, York, Weather by CustomWeather, © 2015

Note: Actual official high and low records may vary slightly from our data, if they occured in-between our weather recording intervals... More about our weather records

Advertising

York weather history for previous 24 hours

 ConditionsComfort  
Time TempWeatherWind HumidityBarometerVisibility
2:50 PM
Sun, Mar 1
43 °FPartly sunny.14 mph66%29.30 "HgN/A
1:50 PM46 °FPassing clouds.25 mph50%29.33 "HgN/A
12:50 PM46 °FPassing clouds.30 mph53%29.33 "HgN/A
11:50 AM46 °FBroken clouds.18 mph53%29.36 "HgN/A
10:50 AM45 °FBroken clouds.17 mph61%29.36 "HgN/A
9:50 AM45 °FPassing clouds.22 mph66%29.33 "HgN/A
8:50 AM41 °FScattered clouds.23 mph81%29.30 "HgN/A
7:50 AM41 °FPartly sunny.24 mph81%29.27 "Hg3 mi
6:50 AM41 °FPassing clouds.24 mph81%29.24 "HgN/A
5:50 AM43 °FPassing clouds.30 mph71%29.21 "HgN/A
4:50 AM43 °FPassing clouds.32 mph71%29.21 "HgN/A
3:50 AM45 °FPassing clouds.29 mph66%29.18 "HgN/A
2:50 AM45 °FPassing clouds.30 mph66%29.18 "HgN/A
1:50 AM45 °FPassing clouds.24 mph71%29.18 "HgN/A
12:50 AM48 °FPassing clouds.29 mph62%29.15 "HgN/A
11:50 PM
Sat, Feb 28
48 °FPassing clouds.28 mph66%29.12 "HgN/A
10:50 PM50 °FPartly cloudy.25 mph71%29.12 "HgN/A
9:50 PM50 °FPassing clouds.13 mph82%29.12 "HgN/A
8:50 PM48 °FOvercast.14 mph76%29.18 "HgN/A
7:50 PM46 °FPassing clouds.17 mph82%29.21 "HgN/A
6:50 PM48 °FPassing clouds.17 mph71%29.27 "HgN/A
5:50 PM50 °FPartly cloudy.14 mph67%29.33 "HgN/A
4:50 PM50 °FBroken clouds.15 mph67%29.36 "HgN/A
Weather by CustomWeather, © 2015

See weather overviewHow to use our weather pages